This demonstration page uses our WeatherBlox Daily Observations layout. Learn more.

Left ArrowRight Arrow

38.20091, -84.87328

Hourly Observations for July 24, 2017

Temp ( °F °C ) Dew Point ( °F °C ) Humidity (%) Winds ( mph kmh ) Pressure ( in mb ) Visibility ( mi km ) Precip ( " mm )
12:53 am 00:53 Clear 73 22.8 68 20 84 84 WSW 6 9 29.83 1010 10 16 0.00 0.00
1:53 am 01:53 Clear 73 22.8 69 20.6 87 87 Calm 29.86 1011 10 16 0.00 0.00
2:53 am 02:53 Clear 72 22.2 68 20 87 87 WSW 3 6 29.85 1011 10 16 0.00 0.00
3:53 am 03:53 Clear 72 22.2 68 20 87 87 Calm 29.85 1011 10 16 0.00 0.00
4:53 am 04:53 Clear 71 21.7 68 20 90 90 Calm 29.85 1011 8 13 0.00 0.00
5:53 am 05:53 Clear 72 22.2 68 20 87 87 WSW 6 9 29.87 1011 8 13 0.00 0.00
6:53 am 06:53 Sunny with Mist and Fog 72 22.2 68 20 87 87 WSW 6 9 29.88 1012 6 10 0.00 0.00
7:53 am 07:53 Sunny 73 22.8 69 20.6 87 87 Calm 29.89 1012 8 13 0.00 0.00
8:53 am 08:53 Sunny 76 24.4 71 21.7 85 85 SW 5 7 29.90 1013 10 16 0.00 0.00
9:53 am 09:53 Sunny 80 26.7 71 21.7 74 74 WSW 6 9 29.90 1012 10 16 0.00 0.00
10:50 am 10:50 Mostly Cloudy 82 28 72 22 70 70 WNW 3 6 29.91 1013 10 16 0.00 0.00
10:53 am 10:53 Partly Cloudy 82 27.8 71 21.7 69 69 W 5 7 29.91 1013 10 16 0.00 0.00
11:53 am 11:53 Mostly Cloudy 83 28.3 71 21.7 67 67 VRB 6 9 29.91 1013 10 16 0.00 0.00
12:02 pm 12:02 Partly Cloudy 84 28.9 71 21.7 65 65 VRB 7 11 29.91 1013 10 16 0.00 0.00
12:53 pm 12:53 Mostly Cloudy 85 29.4 71 21.7 63 63 WNW 6 9 29.91 1013 10 16 0.00 0.00
1:53 pm 13:53 Mostly Sunny 87 30.6 70 21.1 57 57 VRB 6 9 29.91 1013 10 16 0.00 0.00
2:53 pm 14:53 Sunny with Nearby Thunderstorms 86 30 68 20 55 55 WNW 6 9 29.91 1013 10 16 0.00 0.00
3:38 pm 15:38 Sunny 86 30 66 18.9 51 51 NNW 9 15 29.91 1013 10 16 0.00 0.00
3:53 pm 15:53 Sunny 87 30.6 65 18.3 48 48 NW 6 9 29.90 1013 10 16 0.00 0.00
4:53 pm 16:53 Mostly Sunny 87 30.6 64 17.8 46 46 NNW 9 15 29.91 1013 10 16 0.00 0.00
5:53 pm 17:53 Cloudy 85 29.4 64 17.8 50 50 NNW 7 11 29.91 1013 10 16 0.00 0.00
6:53 pm 18:53 Mostly Sunny 87 30.6 64 17.8 46 46 NNW 7 11 29.92 1013 10 16 0.00 0.00
7:53 pm 19:53 Partly Cloudy 85 29.4 64 17.8 50 50 N 3 6 29.94 1014 10 16 0.00 0.00
8:53 pm 20:53 Cloudy 83 28.3 63 17.2 51 51 N 5 7 29.96 1014 10 16 0.00 0.00
9:53 pm 21:53 Mostly Cloudy 81 27.2 65 18.3 58 58 N 3 6 29.97 1015 10 16 0.00 0.00
10:53 pm 22:53 Cloudy 78 25.6 65 18.3 64 64 N 6 9 30.00 1016 10 16 0.00 0.00
11:53 pm 23:53 Cloudy 77 25 65 18.3 66 66 NNE 5 7 30.01 1016 10 16 0.00 0.00

Powered by AerisWeather